Time,TemperatureF,DewpointF,PressureIn,WindDirection,WindDirectionDegrees,WindSpeedMPH,WindSpeedGustMPH,Humidity,HourlyPrecipIn,Conditions,Clouds,dailyrainin,SoftwareType,DateUTC
2013-04-16 00:04:00,75.0,63.8,29.21,North,0,0.0,0.0,68,0.00,,BKN,0.00,VWS V14.01,2013-04-16 05:04:00,
2013-04-16 00:09:00,75.0,64.2,29.21,North,0,0.0,0.0,69,0.00,,BKN,0.00,VWS V14.01,2013-04-16 05:09:00,
2013-04-16 00:14:00,74.8,64.0,29.21,North,0,0.0,0.0,69,0.00,,BKN,0.00,VWS V14.01,2013-04-16 05:14:00,
2013-04-16 00:19:00,74.7,63.8,29.21,North,0,0.0,0.0,69,0.00,,BKN,0.00,VWS V14.01,2013-04-16 05:19:00,
2013-04-16 00:25:00,74.7,64.2,29.21,North,0,0.0,0.0,70,0.00,,BKN,0.00,VWS V14.01,2013-04-16 05:25:00,
2013-04-16 00:30:00,74.5,64.1,29.21,North,0,0.0,0.0,70,0.00,,BKN,0.00,VWS V14.01,2013-04-16 05:30:00,
2013-04-16 00:35:00,74.5,64.1,29.21,North,0,0.0,0.0,70,0.00,,BKN,0.00,VWS V14.01,2013-04-16 05:35:00,
2013-04-16 00:40:00,74.5,64.5,29.21,North,0,0.0,0.0,71,0.00,,BKN,0.00,VWS V14.01,2013-04-16 05:40:00,
2013-04-16 00:45:00,74.3,64.3,29.21,North,0,0.0,0.0,71,0.00,,BKN,0.00,VWS V14.01,2013-04-16 05:45:00,
2013-04-16 00:50:00,74.3,64.3,29.21,North,0,0.0,0.0,71,0.00,,BKN,0.00,VWS V14.01,2013-04-16 05:50:00,
2013-04-16 00:55:00,74.1,64.5,29.21,North,0,0.0,0.0,72,0.00,,BKN,0.00,VWS V14.01,2013-04-16 05:55:00,
2013-04-16 01:00:00,74.1,64.5,29.21,North,0,0.0,0.0,72,0.00,,BKN,0.00,VWS V14.01,2013-04-16 06:00:00,
2013-04-16 01:05:00,73.9,64.3,29.21,North,0,0.0,0.0,72,0.00,,BKN,0.00,VWS V14.01,2013-04-16 06:05:00,
2013-04-16 01:10:00,73.9,64.8,29.21,North,0,0.0,0.0,73,0.00,,BKN,0.00,VWS V14.01,2013-04-16 06:10:00,
2013-04-16 01:15:00,73.8,64.6,29.21,North,0,0.0,0.0,73,0.00,,BKN,0.00,VWS V14.01,2013-04-16 06:15:00,
2013-04-16 01:20:00,73.6,64.8,29.21,North,0,0.0,0.0,74,0.00,,BKN,0.00,VWS V14.01,2013-04-16 06:20:00,
2013-04-16 01:25:00,73.6,64.8,29.21,North,0,0.0,0.0,74,0.00,,BKN,0.00,VWS V14.01,2013-04-16 06:25:00,
2013-04-16 01:30:00,73.4,65.0,29.21,North,0,0.0,0.0,75,0.00,,BKN,0.00,VWS V14.01,2013-04-16 06:30:00,
2013-04-16 01:35:00,73.4,65.0,29.21,North,0,0.0,0.0,75,0.00,,BKN,0.00,VWS V14.01,2013-04-16 06:35:00,
2013-04-16 01:40:00,73.4,65.4,29.21,North,0,0.0,0.0,76,0.00,,BKN,0.00,VWS V14.01,2013-04-16 06:40:00,
2013-04-16 01:45:00,73.2,65.6,29.21,North,0,0.0,0.0,77,0.00,,BKN,0.00,VWS V14.01,2013-04-16 06:45:00,
2013-04-16 01:51:00,73.2,65.6,29.21,North,0,0.0,0.0,77,0.00,,BKN,0.00,VWS V14.01,2013-04-16 06:51:00,
2013-04-16 01:55:00,73.0,65.4,29.21,North,0,0.0,0.0,77,0.00,,BKN,0.00,VWS V14.01,2013-04-16 06:55:00,
2013-04-16 02:00:00,73.0,65.4,29.21,North,0,0.0,0.0,77,0.00,,BKN,0.00,VWS V14.01,2013-04-16 07:00:00,
2013-04-16 02:06:00,72.9,65.6,29.21,North,0,0.0,0.0,78,0.00,,BKN,0.00,VWS V14.01,2013-04-16 07:06:00,
2013-04-16 02:11:00,72.9,65.6,29.21,North,0,0.0,0.0,78,0.00,,BKN,0.00,VWS V14.01,2013-04-16 07:11:00,
2013-04-16 02:16:00,72.9,66.0,29.21,North,0,0.0,0.0,79,0.00,,BKN,0.00,VWS V14.01,2013-04-16 07:16:00,
2013-04-16 02:21:00,72.9,66.0,29.21,North,0,0.0,0.0,79,0.00,,BKN,0.00,VWS V14.01,2013-04-16 07:21:00,
2013-04-16 02:26:00,72.9,66.0,29.21,North,0,0.0,0.0,79,0.00,,BKN,0.00,VWS V14.01,2013-04-16 07:26:00,
2013-04-16 02:31:00,73.0,66.2,29.21,North,0,0.0,0.0,79,0.00,,BKN,0.00,VWS V14.01,2013-04-16 07:31:00,
2013-04-16 02:36:00,73.0,65.8,29.21,North,0,0.0,0.0,78,0.00,,BKN,0.00,VWS V14.01,2013-04-16 07:36:00,
2013-04-16 02:41:00,73.0,65.8,29.21,North,0,0.0,0.0,78,0.00,,BKN,0.00,VWS V14.01,2013-04-16 07:41:00,
2013-04-16 02:47:00,73.0,65.8,29.21,North,0,0.0,0.0,78,0.00,,BKN,0.00,VWS V14.01,2013-04-16 07:47:00,
2013-04-16 02:52:00,73.0,65.8,29.21,North,0,0.0,0.0,78,0.00,,BKN,0.00,VWS V14.01,2013-04-16 07:52:00,
2013-04-16 02:57:00,73.0,65.8,29.21,North,0,0.0,0.0,78,0.00,,BKN,0.00,VWS V14.01,2013-04-16 07:57:00,
2013-04-16 03:02:00,72.9,65.6,29.21,North,0,0.0,0.0,78,0.00,,BKN,0.00,VWS V14.01,2013-04-16 08:02:00,
2013-04-16 03:07:00,72.9,65.6,29.21,North,0,0.0,0.0,78,0.00,,BKN,0.00,VWS V14.01,2013-04-16 08:07:00,
2013-04-16 03:12:00,72.9,65.6,29.21,North,0,0.0,0.0,78,0.00,,BKN,0.00,VWS V14.01,2013-04-16 08:12:00,
2013-04-16 03:17:00,72.7,65.4,29.21,North,0,0.0,0.0,78,0.00,,BKN,0.00,VWS V14.01,2013-04-16 08:17:00,
2013-04-16 03:23:00,72.7,65.4,29.21,North,0,0.0,0.0,78,0.00,,BKN,0.00,VWS V14.01,2013-04-16 08:23:00,
2013-04-16 03:28:00,72.7,65.1,29.21,North,0,0.0,0.0,77,0.00,,BKN,0.00,VWS V14.01,2013-04-16 08:28:00,
2013-04-16 03:33:00,72.7,65.1,29.23,North,0,0.0,0.0,77,0.00,,BKN,0.00,VWS V14.01,2013-04-16 08:33:00,
2013-04-16 03:38:00,72.7,65.1,29.23,North,0,0.0,0.0,77,0.00,,BKN,0.00,VWS V14.01,2013-04-16 08:38:00,
2013-04-16 03:43:00,72.7,65.1,29.23,North,0,0.0,0.0,77,0.00,,BKN,0.00,VWS V14.01,2013-04-16 08:43:00,
2013-04-16 03:48:00,72.7,65.1,29.23,North,0,0.0,0.0,77,0.00,,BKN,0.00,VWS V14.01,2013-04-16 08:48:00,
2013-04-16 03:53:00,72.7,65.1,29.23,North,0,0.0,0.0,77,0.00,,BKN,0.00,VWS V14.01,2013-04-16 08:53:00,
2013-04-16 03:58:00,72.7,65.1,29.23,North,0,0.0,0.0,77,0.00,,BKN,0.00,VWS V14.01,2013-04-16 08:58:00,
2013-04-16 04:03:00,72.5,64.9,29.21,North,0,0.0,0.0,77,0.00,,BKN,0.00,VWS V14.01,2013-04-16 09:03:00,
2013-04-16 04:08:00,72.5,64.9,29.21,North,0,0.0,0.0,77,0.00,,BKN,0.00,VWS V14.01,2013-04-16 09:08:00,
2013-04-16 04:13:00,72.3,64.7,29.21,North,0,0.0,0.0,77,0.00,,BKN,0.00,VWS V14.01,2013-04-16 09:13:00,
2013-04-16 04:19:00,72.3,64.3,29.21,North,0,0.0,0.0,76,0.00,,BKN,0.00,VWS V14.01,2013-04-16 09:19:00,
2013-04-16 04:24:00,72.3,64.3,29.21,North,0,0.0,0.0,76,0.00,,BKN,0.00,VWS V14.01,2013-04-16 09:24:00,
2013-04-16 04:29:00,72.1,63.8,29.21,North,0,0.0,0.0,75,0.00,,BKN,0.00,VWS V14.01,2013-04-16 09:29:00,
2013-04-16 04:34:00,72.1,63.0,29.23,North,0,0.0,0.0,73,0.00,,BKN,0.00,VWS V14.01,2013-04-16 09:34:00,
2013-04-16 04:39:00,72.0,62.5,29.23,North,0,0.0,0.0,72,0.00,,BKN,0.00,VWS V14.01,2013-04-16 09:39:00,
2013-04-16 04:44:00,72.0,62.0,29.23,North,0,0.0,0.0,71,0.00,,BKN,0.00,VWS V14.01,2013-04-16 09:44:00,
2013-04-16 04:49:00,72.0,62.0,29.23,North,0,0.0,0.0,71,0.00,,BKN,0.00,VWS V14.01,2013-04-16 09:49:00,
2013-04-16 04:54:00,72.0,62.0,29.23,North,0,0.0,0.0,71,0.00,,BKN,0.00,VWS V14.01,2013-04-16 09:54:00,
2013-04-16 04:59:00,72.0,62.0,29.23,North,0,0.0,0.0,71,0.00,,BKN,0.00,VWS V14.01,2013-04-16 09:59:00,
2013-04-16 05:04:00,71.8,62.3,29.23,North,0,0.0,0.0,72,0.00,,BKN,0.00,VWS V14.01,2013-04-16 10:04:00,
2013-04-16 05:09:00,72.0,62.5,29.23,North,0,0.0,0.0,72,0.00,,BKN,0.00,VWS V14.01,2013-04-16 10:09:00,
2013-04-16 05:14:00,72.0,62.5,29.23,North,0,0.0,0.0,72,0.00,,BKN,0.00,VWS V14.01,2013-04-16 10:14:00,
2013-04-16 05:19:00,72.0,62.0,29.23,North,0,0.0,0.0,71,0.00,,BKN,0.00,VWS V14.01,2013-04-16 10:19:00,
2013-04-16 05:25:00,72.0,62.0,29.23,North,0,0.0,0.0,71,0.00,,BKN,0.00,VWS V14.01,2013-04-16 10:25:00,
2013-04-16 05:30:00,72.0,62.0,29.23,North,0,0.0,0.0,71,0.00,,BKN,0.00,VWS V14.01,2013-04-16 10:30:00,
2013-04-16 05:35:00,72.0,62.0,29.23,North,0,0.0,0.0,71,0.00,,BKN,0.00,VWS V14.01,2013-04-16 10:35:00,
2013-04-16 05:40:00,71.8,61.5,29.23,North,0,0.0,0.0,70,0.00,,BKN,0.00,VWS V14.01,2013-04-16 10:40:00,
2013-04-16 05:45:00,71.8,61.5,29.23,North,0,0.0,0.0,70,0.00,,BKN,0.00,VWS V14.01,2013-04-16 10:45:00,
2013-04-16 05:50:00,71.8,61.5,29.23,North,0,0.0,0.0,70,0.00,,BKN,0.00,VWS V14.01,2013-04-16 10:50:00,
2013-04-16 05:55:00,71.8,61.1,29.23,North,0,0.0,0.0,69,0.00,,BKN,0.00,VWS V14.01,2013-04-16 10:55:00,
2013-04-16 06:00:00,71.8,61.1,29.23,North,0,0.0,0.0,69,0.00,,BKN,0.00,VWS V14.01,2013-04-16 11:00:00,
2013-04-16 06:05:00,71.8,61.1,29.23,North,0,0.0,0.0,69,0.00,,BKN,0.00,VWS V14.01,2013-04-16 11:05:00,
2013-04-16 06:10:00,71.8,61.1,29.23,North,0,0.0,0.0,69,0.00,,BKN,0.00,VWS V14.01,2013-04-16 11:10:00,
2013-04-16 06:15:00,71.8,61.1,29.23,North,0,0.0,0.0,69,0.00,,BKN,0.00,VWS V14.01,2013-04-16 11:15:00,
2013-04-16 06:20:00,71.8,61.1,29.26,North,0,0.0,0.0,69,0.00,,BKN,0.00,VWS V14.01,2013-04-16 11:20:00,
2013-04-16 06:25:00,71.8,61.1,29.26,North,0,0.0,0.0,69,0.00,,BKN,0.00,VWS V14.01,2013-04-16 11:25:00,
2013-04-16 06:30:00,71.8,61.1,29.26,North,0,0.0,0.0,69,0.00,,BKN,0.00,VWS V14.01,2013-04-16 11:30:00,
2013-04-16 06:35:00,71.8,61.1,29.26,North,0,0.0,0.0,69,0.00,,BKN,0.00,VWS V14.01,2013-04-16 11:35:00,
2013-04-16 06:40:00,71.8,60.7,29.26,North,0,0.0,0.0,68,0.00,,BKN,0.00,VWS V14.01,2013-04-16 11:40:00,
2013-04-16 06:45:00,71.8,60.7,29.26,North,0,0.0,0.0,68,0.00,,BKN,0.00,VWS V14.01,2013-04-16 11:45:00,
2013-04-16 06:51:00,71.8,61.1,29.26,North,0,0.0,0.0,69,0.00,,BKN,0.00,VWS V14.01,2013-04-16 11:51:00,
2013-04-16 06:56:00,71.8,60.7,29.26,North,0,0.0,0.0,68,0.00,,BKN,0.00,VWS V14.01,2013-04-16 11:56:00,
2013-04-16 07:02:00,71.8,60.7,29.26,North,0,0.0,0.0,68,0.00,,BKN,0.00,VWS V14.01,2013-04-16 12:02:00,
2013-04-16 07:07:00,71.8,60.7,29.26,North,0,0.0,0.0,68,0.00,,BKN,0.00,VWS V14.01,2013-04-16 12:07:00,
2013-04-16 07:12:00,71.8,60.7,29.26,North,0,0.0,0.0,68,0.00,,BKN,0.00,VWS V14.01,2013-04-16 12:12:00,
2013-04-16 07:17:00,71.8,60.7,29.26,North,0,0.0,0.0,68,0.00,,BKN,0.00,VWS V14.01,2013-04-16 12:17:00,
2013-04-16 07:22:00,71.8,60.7,29.26,North,0,0.0,0.0,68,0.00,,BKN,0.00,VWS V14.01,2013-04-16 12:22:00,
2013-04-16 07:27:00,72.0,60.8,29.26,North,0,0.0,0.0,68,0.00,,BKN,0.00,VWS V14.01,2013-04-16 12:27:00,
2013-04-16 07:32:00,72.0,60.8,29.29,North,0,0.0,0.0,68,0.00,,BKN,0.00,VWS V14.01,2013-04-16 12:32:00,
2013-04-16 07:37:00,72.0,60.8,29.29,North,0,0.0,0.0,68,0.00,,BKN,0.00,VWS V14.01,2013-04-16 12:37:00,
2013-04-16 07:43:00,72.1,61.0,29.29,North,0,0.0,0.0,68,0.00,,BKN,0.00,VWS V14.01,2013-04-16 12:43:00,
2013-04-16 07:48:00,72.1,61.0,29.29,North,0,0.0,0.0,68,0.00,,BKN,0.00,VWS V14.01,2013-04-16 12:48:00,
2013-04-16 07:53:00,72.1,61.0,29.29,North,0,0.0,0.0,68,0.00,,BKN,0.00,VWS V14.01,2013-04-16 12:53:00,
2013-04-16 07:58:00,72.1,61.0,29.29,North,0,0.0,0.0,68,0.00,,BKN,0.00,VWS V14.01,2013-04-16 12:58:00,
2013-04-16 08:03:00,72.1,61.4,29.29,North,0,0.0,0.0,69,0.00,,BKN,0.00,VWS V14.01,2013-04-16 13:03:00,
2013-04-16 08:08:00,72.1,61.4,29.29,North,0,0.0,0.0,69,0.00,,BKN,0.00,VWS V14.01,2013-04-16 13:08:00,
2013-04-16 08:13:00,72.3,61.6,29.29,North,0,0.0,0.0,69,0.00,,BKN,0.00,VWS V14.01,2013-04-16 13:13:00,
2013-04-16 08:19:00,72.3,61.2,29.32,North,0,0.0,0.0,68,0.00,,BKN,0.00,VWS V14.01,2013-04-16 13:19:00,
2013-04-16 08:24:00,72.3,61.2,29.32,North,0,0.0,0.0,68,0.00,,BKN,0.00,VWS V14.01,2013-04-16 13:24:00,
2013-04-16 08:29:00,72.5,61.3,29.32,North,0,0.0,0.0,68,0.00,,BKN,0.00,VWS V14.01,2013-04-16 13:29:00,
2013-04-16 08:34:00,72.5,61.3,29.32,North,0,0.0,0.0,68,0.00,,BKN,0.00,VWS V14.01,2013-04-16 13:34:00,
2013-04-16 08:39:00,72.7,61.5,29.32,North,0,0.0,0.0,68,0.00,,BKN,0.00,VWS V14.01,2013-04-16 13:39:00,
2013-04-16 08:44:00,72.7,61.5,29.32,North,0,0.0,0.0,68,0.00,,BKN,0.00,VWS V14.01,2013-04-16 13:44:00,
2013-04-16 08:49:00,72.7,61.5,29.32,North,0,0.0,0.0,68,0.00,,BKN,0.00,VWS V14.01,2013-04-16 13:49:00,
2013-04-16 08:55:00,72.7,61.5,29.32,North,0,0.0,0.0,68,0.00,,BKN,0.00,VWS V14.01,2013-04-16 13:55:00,
2013-04-16 09:00:00,72.7,61.1,29.32,North,0,0.0,0.0,67,0.00,,BKN,0.00,VWS V14.01,2013-04-16 14:00:00,
2013-04-16 09:05:00,72.9,61.7,29.32,North,0,0.0,0.0,68,0.00,,BKN,0.00,VWS V14.01,2013-04-16 14:05:00,
2013-04-16 09:10:00,72.9,61.7,29.32,North,0,0.0,0.0,68,0.00,,BKN,0.00,VWS V14.01,2013-04-16 14:10:00,
2013-04-16 09:15:00,73.0,61.9,29.32,North,0,0.0,0.0,68,0.00,,BKN,0.00,VWS V14.01,2013-04-16 14:15:00,
2013-04-16 09:20:00,73.2,61.6,29.32,North,0,0.0,0.0,67,0.00,,BKN,0.00,VWS V14.01,2013-04-16 14:20:00,
2013-04-16 09:25:00,73.2,61.6,29.32,North,0,0.0,0.0,67,0.00,,BKN,0.00,VWS V14.01,2013-04-16 14:25:00,
2013-04-16 09:30:00,73.4,61.8,29.32,North,0,0.0,0.0,67,0.00,,BKN,0.00,VWS V14.01,2013-04-16 14:30:00,
2013-04-16 09:35:00,73.4,62.2,29.32,North,0,0.0,0.0,68,0.00,,BKN,0.00,VWS V14.01,2013-04-16 14:35:00,
2013-04-16 09:41:00,73.6,62.4,29.32,North,0,0.0,0.0,68,0.00,,BKN,0.00,VWS V14.01,2013-04-16 14:41:00,
2013-04-16 09:46:00,73.8,62.5,29.32,North,0,0.0,0.0,68,0.00,,BKN,0.00,VWS V14.01,2013-04-16 14:46:00,
2013-04-16 09:51:00,73.9,62.3,29.32,North,0,0.0,0.0,67,0.00,,BKN,0.00,VWS V14.01,2013-04-16 14:51:00,
2013-04-16 09:56:00,74.1,62.5,29.32,North,0,0.0,0.0,67,0.00,,BKN,0.00,VWS V14.01,2013-04-16 14:56:00,
2013-04-16 10:01:00,74.1,62.0,29.32,North,0,0.0,0.0,66,0.00,,BKN,0.00,VWS V14.01,2013-04-16 15:01:00,
2013-04-16 10:07:00,74.1,62.0,29.32,North,0,0.0,0.0,66,0.00,,BKN,0.00,VWS V14.01,2013-04-16 15:07:00,
2013-04-16 10:12:00,74.3,62.6,29.32,North,0,0.0,0.0,67,0.00,,BKN,0.00,VWS V14.01,2013-04-16 15:12:00,
2013-04-16 10:17:00,74.5,62.8,29.32,North,0,0.0,0.0,67,0.00,,BKN,0.00,VWS V14.01,2013-04-16 15:17:00,
2013-04-16 10:22:00,74.7,62.6,29.32,North,0,0.0,0.0,66,0.00,,BKN,0.00,VWS V14.01,2013-04-16 15:22:00,
2013-04-16 10:27:00,75.2,63.1,29.32,North,0,0.0,0.0,66,0.00,,BKN,0.00,VWS V14.01,2013-04-16 15:27:00,
2013-04-16 10:32:00,76.1,63.5,29.32,North,0,0.0,0.0,65,0.00,,BKN,0.00,VWS V14.01,2013-04-16 15:32:00,
2013-04-16 10:38:00,77.0,63.5,29.32,North,0,0.0,0.0,63,0.00,,BKN,0.00,VWS V14.01,2013-04-16 15:38:00,
2013-04-16 10:43:00,77.9,63.8,29.32,North,0,0.0,0.0,62,0.00,,BKN,0.00,VWS V14.01,2013-04-16 15:43:00,
2013-04-16 10:48:00,78.3,62.8,29.32,North,0,0.0,0.0,59,0.00,,BKN,0.00,VWS V14.01,2013-04-16 15:48:00,
2013-04-16 10:53:00,78.3,62.8,29.32,North,0,0.0,0.0,59,0.00,,BKN,0.00,VWS V14.01,2013-04-16 15:53:00,
2013-04-16 10:58:00,78.8,62.3,29.32,North,0,0.0,0.0,57,0.00,,BKN,0.00,VWS V14.01,2013-04-16 15:58:00,
2013-04-16 11:03:00,79.3,62.8,29.32,North,0,0.0,0.0,57,0.00,,BKN,0.00,VWS V14.01,2013-04-16 16:03:00,
2013-04-16 11:08:00,79.9,63.8,29.32,North,0,0.0,0.0,58,0.00,,BKN,0.00,VWS V14.01,2013-04-16 16:08:00,
2013-04-16 11:13:00,80.6,64.0,29.32,North,0,0.0,0.0,57,0.00,,BKN,0.00,VWS V14.01,2013-04-16 16:13:00,
2013-04-16 11:18:00,80.8,62.6,29.35,North,0,0.0,0.0,54,0.00,,BKN,0.00,VWS V14.01,2013-04-16 16:18:00,
2013-04-16 11:23:00,80.2,62.6,29.35,North,0,0.0,0.0,55,0.00,,BKN,0.00,VWS V14.01,2013-04-16 16:23:00,
2013-04-16 11:28:00,79.7,62.1,29.35,North,0,0.0,0.0,55,0.00,,BKN,0.00,VWS V14.01,2013-04-16 16:28:00,
2013-04-16 11:33:00,79.5,63.0,29.35,North,0,0.0,0.0,57,0.00,,BKN,0.00,VWS V14.01,2013-04-16 16:33:00,
2013-04-16 11:39:00,79.9,63.8,29.35,North,0,0.0,0.0,58,0.00,,BKN,0.00,VWS V14.01,2013-04-16 16:39:00,
2013-04-16 11:44:00,80.6,64.0,29.35,North,0,0.0,0.0,57,0.00,,BKN,0.00,VWS V14.01,2013-04-16 16:44:00,
2013-04-16 11:49:00,81.7,64.0,29.32,North,0,0.0,0.0,55,0.00,,BKN,0.00,VWS V14.01,2013-04-16 16:49:00,
2013-04-16 11:54:00,82.0,62.7,29.32,North,0,0.0,0.0,52,0.00,,BKN,0.00,VWS V14.01,2013-04-16 16:54:00,
2013-04-16 11:59:00,82.6,63.2,29.32,North,0,0.0,0.0,52,0.00,,BKN,0.00,VWS V14.01,2013-04-16 16:59:00,
2013-04-16 12:04:00,82.8,62.8,29.32,North,0,0.0,0.0,51,0.00,,BKN,0.00,VWS V14.01,2013-04-16 17:04:00,
2013-04-16 12:09:00,82.9,63.0,29.32,North,0,0.0,0.0,51,0.00,,BKN,0.00,VWS V14.01,2013-04-16 17:09:00,
2013-04-16 12:14:00,83.3,63.9,29.32,North,0,0.0,0.0,52,0.00,,BKN,0.00,VWS V14.01,2013-04-16 17:14:00,
2013-04-16 12:20:00,84.0,62.8,29.32,North,0,0.0,0.0,49,0.00,,BKN,0.00,VWS V14.01,2013-04-16 17:20:00,
2013-04-16 12:25:00,84.6,63.3,29.32,North,0,0.0,0.0,49,0.00,,BKN,0.00,VWS V14.01,2013-04-16 17:25:00,
2013-04-16 12:30:00,84.7,62.9,29.32,North,0,0.0,0.0,48,0.00,,BKN,0.00,VWS V14.01,2013-04-16 17:30:00,
2013-04-16 12:35:00,84.9,63.7,29.32,North,0,0.0,0.0,49,0.00,,BKN,0.00,VWS V14.01,2013-04-16 17:35:00,
2013-04-16 12:40:00,84.9,63.1,29.32,North,0,0.0,0.0,48,0.00,,BKN,0.00,VWS V14.01,2013-04-16 17:40:00,
2013-04-16 12:45:00,85.1,62.6,29.32,North,0,0.0,0.0,47,0.00,,BKN,0.00,VWS V14.01,2013-04-16 17:45:00,
2013-04-16 12:50:00,85.3,62.2,29.32,North,0,0.0,0.0,46,0.00,,BKN,0.00,VWS V14.01,2013-04-16 17:50:00,
2013-04-16 12:55:00,84.9,60.6,29.32,North,0,0.0,0.0,44,0.00,,BKN,0.00,VWS V14.01,2013-04-16 17:55:00,
2013-04-16 13:01:00,84.2,60.6,29.32,North,0,0.0,0.0,45,0.00,,BKN,0.00,VWS V14.01,2013-04-16 18:01:00,
2013-04-16 13:06:00,84.2,62.4,29.32,North,0,0.0,0.0,48,0.00,,BKN,0.00,VWS V14.01,2013-04-16 18:06:00,
2013-04-16 13:11:00,84.6,61.5,29.32,North,0,0.0,0.0,46,0.00,,BKN,0.00,VWS V14.01,2013-04-16 18:11:00,
2013-04-16 13:16:00,84.2,60.6,29.32,North,0,0.0,0.0,45,0.00,,BKN,0.00,VWS V14.01,2013-04-16 18:16:00,
2013-04-16 13:21:00,84.2,61.8,29.32,North,0,0.0,0.0,47,0.00,,BKN,0.00,VWS V14.01,2013-04-16 18:21:00,
2013-04-16 13:27:00,85.3,62.2,29.32,North,0,0.0,0.0,46,0.00,,BKN,0.00,VWS V14.01,2013-04-16 18:27:00,
2013-04-16 13:32:00,86.2,62.4,29.29,North,0,0.0,0.0,45,0.00,,BKN,0.00,VWS V14.01,2013-04-16 18:32:00,
2013-04-16 13:37:00,86.4,61.9,29.29,North,0,0.0,0.0,44,0.00,,BKN,0.00,VWS V14.01,2013-04-16 18:37:00,
2013-04-16 13:42:00,87.1,61.9,29.29,North,0,0.0,0.0,43,0.00,,BKN,0.00,VWS V14.01,2013-04-16 18:42:00,
2013-04-16 13:47:00,87.1,60.5,29.29,North,0,0.0,0.0,41,0.00,,BKN,0.00,VWS V14.01,2013-04-16 18:47:00,
2013-04-16 13:52:00,87.3,61.4,29.29,North,0,0.0,0.0,42,0.00,,BKN,0.00,VWS V14.01,2013-04-16 18:52:00,
2013-04-16 13:58:00,88.0,62.0,29.29,North,0,0.0,0.0,42,0.00,,BKN,0.00,VWS V14.01,2013-04-16 18:58:00,
2013-04-16 14:03:00,88.2,60.8,29.29,North,0,0.0,0.0,40,0.00,,BKN,0.00,VWS V14.01,2013-04-16 19:03:00,
2013-04-16 14:08:00,88.2,61.5,29.29,North,0,0.0,0.0,41,0.00,,BKN,0.00,VWS V14.01,2013-04-16 19:08:00,
2013-04-16 14:13:00,88.2,60.8,29.29,North,0,0.0,0.0,40,0.00,,BKN,0.00,VWS V14.01,2013-04-16 19:13:00,
2013-04-16 14:18:00,88.0,61.3,29.29,North,0,0.0,0.0,41,0.00,,BKN,0.00,VWS V14.01,2013-04-16 19:18:00,
2013-04-16 14:23:00,88.3,61.0,29.29,North,0,0.0,0.0,40,0.00,,BKN,0.00,VWS V14.01,2013-04-16 19:23:00,
2013-04-16 14:28:00,88.2,60.1,29.29,North,0,0.0,0.0,39,0.00,,BKN,0.00,VWS V14.01,2013-04-16 19:28:00,
2013-04-16 14:33:00,88.7,62.0,29.29,North,0,0.0,0.0,41,0.00,,BKN,0.00,VWS V14.01,2013-04-16 19:33:00,
2013-04-16 14:38:00,88.9,61.5,29.29,North,0,0.0,0.0,40,0.00,,BKN,0.00,VWS V14.01,2013-04-16 19:38:00,
2013-04-16 14:43:00,89.1,61.6,29.29,North,0,0.0,0.0,40,0.00,,BKN,0.00,VWS V14.01,2013-04-16 19:43:00,
2013-04-16 14:48:00,88.9,61.5,29.26,North,0,0.0,0.0,40,0.00,,BKN,0.00,VWS V14.01,2013-04-16 19:48:00,
2013-04-16 14:53:00,88.9,60.8,29.26,North,0,0.0,0.0,39,0.00,,BKN,0.00,VWS V14.01,2013-04-16 19:53:00,
2013-04-16 14:59:00,89.1,61.6,29.26,North,0,0.0,0.0,40,0.00,,BKN,0.00,VWS V14.01,2013-04-16 19:59:00,
2013-04-16 15:04:00,89.2,61.8,29.26,North,0,0.0,0.0,40,0.00,,BKN,0.00,VWS V14.01,2013-04-16 20:04:00,
2013-04-16 15:09:00,89.2,61.1,29.26,North,0,0.0,0.0,39,0.00,,BKN,0.00,VWS V14.01,2013-04-16 20:09:00,
2013-04-16 15:14:00,89.2,61.1,29.26,North,0,0.0,0.0,39,0.00,,BKN,0.00,VWS V14.01,2013-04-16 20:14:00,
2013-04-16 15:19:00,89.4,61.2,29.26,North,0,0.0,0.0,39,0.00,,BKN,0.00,VWS V14.01,2013-04-16 20:19:00,
2013-04-16 15:24:00,89.1,60.2,29.26,North,0,0.0,0.0,38,0.00,,BKN,0.00,VWS V14.01,2013-04-16 20:24:00,
2013-04-16 15:29:00,88.5,60.4,29.26,North,0,0.0,0.0,39,0.00,,BKN,0.00,VWS V14.01,2013-04-16 20:29:00,
2013-04-16 15:34:00,88.9,60.8,29.26,North,0,0.0,0.0,39,0.00,,BKN,0.00,VWS V14.01,2013-04-16 20:34:00,
2013-04-16 15:40:00,89.2,60.3,29.26,North,0,0.0,0.0,38,0.00,,BKN,0.00,VWS V14.01,2013-04-16 20:40:00,
2013-04-16 15:45:00,89.2,60.3,29.26,North,0,0.0,0.0,38,0.00,,BKN,0.00,VWS V14.01,2013-04-16 20:45:00,
2013-04-16 15:50:00,89.6,60.7,29.26,North,0,0.0,0.0,38,0.00,,BKN,0.00,VWS V14.01,2013-04-16 20:50:00,
2013-04-16 15:55:00,89.8,60.8,29.26,North,0,0.0,0.0,38,0.00,,BKN,0.00,VWS V14.01,2013-04-16 20:55:00,
2013-04-16 16:00:00,89.2,60.3,29.26,North,0,0.0,0.0,38,0.00,,BKN,0.00,VWS V14.01,2013-04-16 21:00:00,
2013-04-16 16:05:00,89.2,60.3,29.26,North,0,0.0,0.0,38,0.00,,BKN,0.00,VWS V14.01,2013-04-16 21:05:00,
2013-04-16 16:11:00,89.2,60.3,29.26,North,0,0.0,0.0,38,0.00,,BKN,0.00,VWS V14.01,2013-04-16 21:11:00,
2013-04-16 16:16:00,88.9,60.0,29.26,North,0,0.0,0.0,38,0.00,,BKN,0.00,VWS V14.01,2013-04-16 21:16:00,
2013-04-16 16:21:00,89.2,60.3,29.26,North,0,0.0,0.0,38,0.00,,BKN,0.00,VWS V14.01,2013-04-16 21:21:00,
2013-04-16 16:26:00,90.1,61.1,29.26,North,0,0.0,0.0,38,0.00,,BKN,0.00,VWS V14.01,2013-04-16 21:26:00,
2013-04-16 16:31:00,90.0,60.2,29.26,North,0,0.0,0.0,37,0.00,,BKN,0.00,VWS V14.01,2013-04-16 21:31:00,
2013-04-16 16:36:00,89.6,59.9,29.26,North,0,0.0,0.0,37,0.00,,BKN,0.00,VWS V14.01,2013-04-16 21:36:00,
2013-04-16 16:42:00,89.2,60.3,29.26,North,0,0.0,0.0,38,0.00,,BKN,0.00,VWS V14.01,2013-04-16 21:42:00,
2013-04-16 16:47:00,88.7,60.6,29.23,North,0,0.0,0.0,39,0.00,,BKN,0.00,VWS V14.01,2013-04-16 21:47:00,
2013-04-16 16:52:00,88.9,60.8,29.23,North,0,0.0,0.0,39,0.00,,BKN,0.00,VWS V14.01,2013-04-16 21:52:00,
2013-04-16 16:57:00,88.2,60.1,29.23,North,0,0.0,0.0,39,0.00,,BKN,0.00,VWS V14.01,2013-04-16 21:57:00,
2013-04-16 17:02:00,88.0,60.0,29.23,North,0,0.0,0.0,39,0.00,,BKN,0.00,VWS V14.01,2013-04-16 22:02:00,
2013-04-16 17:07:00,88.0,59.2,29.23,North,0,0.0,0.0,38,0.00,,BKN,0.00,VWS V14.01,2013-04-16 22:07:00,
2013-04-16 17:13:00,87.8,59.8,29.23,North,0,0.0,0.0,39,0.00,,BKN,0.00,VWS V14.01,2013-04-16 22:13:00,
2013-04-16 17:18:00,87.8,59.8,29.23,North,0,0.0,0.0,39,0.00,,BKN,0.00,VWS V14.01,2013-04-16 22:18:00,
2013-04-16 17:23:00,88.2,59.4,29.23,North,0,0.0,0.0,38,0.00,,BKN,0.00,VWS V14.01,2013-04-16 22:23:00,
2013-04-16 17:28:00,88.2,60.1,29.23,North,0,0.0,0.0,39,0.00,,BKN,0.00,VWS V14.01,2013-04-16 22:28:00,
2013-04-16 17:33:00,88.7,60.6,29.23,North,0,0.0,0.0,39,0.00,,BKN,0.00,VWS V14.01,2013-04-16 22:33:00,
2013-04-16 17:38:00,88.7,59.9,29.23,North,0,0.0,0.0,38,0.00,,BKN,0.00,VWS V14.01,2013-04-16 22:38:00,
2013-04-16 17:43:00,88.3,59.5,29.23,North,0,0.0,0.0,38,0.00,,BKN,0.00,VWS V14.01,2013-04-16 22:43:00,
2013-04-16 17:48:00,88.5,59.7,29.23,North,0,0.0,0.0,38,0.00,,BKN,0.00,VWS V14.01,2013-04-16 22:48:00,
2013-04-16 17:53:00,88.3,59.5,29.23,North,0,0.0,0.0,38,0.00,,BKN,0.00,VWS V14.01,2013-04-16 22:53:00,
2013-04-16 17:58:00,88.3,60.3,29.23,North,0,0.0,0.0,39,0.00,,BKN,0.00,VWS V14.01,2013-04-16 22:58:00,
2013-04-16 18:04:00,88.3,60.3,29.23,North,0,0.0,0.0,39,0.00,,BKN,0.00,VWS V14.01,2013-04-16 23:04:00,
2013-04-16 18:09:00,88.0,60.0,29.23,North,0,0.0,0.0,39,0.00,,BKN,0.00,VWS V14.01,2013-04-16 23:09:00,
2013-04-16 18:14:00,87.4,60.2,29.23,North,0,0.0,0.0,40,0.00,,BKN,0.00,VWS V14.01,2013-04-16 23:14:00,
2013-04-16 18:19:00,87.3,60.7,29.23,North,0,0.0,0.0,41,0.00,,BKN,0.00,VWS V14.01,2013-04-16 23:19:00,
2013-04-16 18:24:00,87.1,60.5,29.23,North,0,0.0,0.0,41,0.00,,BKN,0.00,VWS V14.01,2013-04-16 23:24:00,
2013-04-16 18:29:00,87.1,60.5,29.23,North,0,0.0,0.0,41,0.00,,BKN,0.00,VWS V14.01,2013-04-16 23:29:00,
2013-04-16 18:34:00,86.9,59.7,29.26,North,0,0.0,0.0,40,0.00,,BKN,0.00,VWS V14.01,2013-04-16 23:34:00,
2013-04-16 18:40:00,86.9,60.4,29.26,North,0,0.0,0.0,41,0.00,,BKN,0.00,VWS V14.01,2013-04-16 23:40:00,
2013-04-16 18:45:00,86.7,60.2,29.26,North,0,0.0,0.0,41,0.00,,BKN,0.00,VWS V14.01,2013-04-16 23:45:00,
2013-04-16 18:50:00,86.7,60.2,29.26,North,0,0.0,0.0,41,0.00,,BKN,0.00,VWS V14.01,2013-04-16 23:50:00,
2013-04-16 18:55:00,86.9,60.4,29.26,North,0,0.0,0.0,41,0.00,,BKN,0.00,VWS V14.01,2013-04-16 23:55:00,
2013-04-16 19:00:00,86.7,60.2,29.26,North,0,0.0,0.0,41,0.00,,BKN,0.00,VWS V14.01,2013-04-17 00:00:00,
2013-04-16 19:05:00,86.5,60.1,29.26,North,0,0.0,0.0,41,0.00,,BKN,0.00,VWS V14.01,2013-04-17 00:05:00,
2013-04-16 19:10:00,86.2,59.7,29.26,North,0,0.0,0.0,41,0.00,,BKN,0.00,VWS V14.01,2013-04-17 00:10:00,
2013-04-16 19:15:00,85.8,60.1,29.26,North,0,0.0,0.0,42,0.00,,BKN,0.00,VWS V14.01,2013-04-17 00:15:00,
2013-04-16 19:20:00,85.6,60.6,29.26,North,0,0.0,0.0,43,0.00,,BKN,0.00,VWS V14.01,2013-04-17 00:20:00,
2013-04-16 19:26:00,85.5,60.4,29.26,North,0,0.0,0.0,43,0.00,,BKN,0.00,VWS V14.01,2013-04-17 00:26:00,
2013-04-16 19:31:00,85.1,60.1,29.26,North,0,0.0,0.0,43,0.00,,BKN,0.00,VWS V14.01,2013-04-17 00:31:00,
2013-04-16 19:36:00,84.9,60.0,29.26,North,0,0.0,0.0,43,0.00,,BKN,0.00,VWS V14.01,2013-04-17 00:36:00,
2013-04-16 19:41:00,84.7,60.4,29.26,North,0,0.0,0.0,44,0.00,,BKN,0.00,VWS V14.01,2013-04-17 00:41:00,
2013-04-16 19:46:00,84.6,60.3,29.26,North,0,0.0,0.0,44,0.00,,BKN,0.00,VWS V14.01,2013-04-17 00:46:00,
2013-04-16 19:52:00,84.4,60.1,29.26,North,0,0.0,0.0,44,0.00,,BKN,0.00,VWS V14.01,2013-04-17 00:52:00,
2013-04-16 19:57:00,84.2,60.0,29.26,North,0,0.0,0.0,44,0.00,,BKN,0.00,VWS V14.01,2013-04-17 00:57:00,
2013-04-16 20:02:00,83.8,60.2,29.26,North,0,0.0,0.0,45,0.00,,BKN,0.00,VWS V14.01,2013-04-17 01:02:00,
2013-04-16 20:07:00,83.7,60.1,29.26,North,0,0.0,0.0,45,0.00,,BKN,0.00,VWS V14.01,2013-04-17 01:07:00,
2013-04-16 20:12:00,83.5,60.5,29.26,North,0,0.0,0.0,46,0.00,,BKN,0.00,VWS V14.01,2013-04-17 01:12:00,
2013-04-16 20:17:00,83.3,60.4,29.26,North,0,0.0,0.0,46,0.00,,BKN,0.00,VWS V14.01,2013-04-17 01:17:00,
2013-04-16 20:22:00,83.1,60.2,29.26,North,0,0.0,0.0,46,0.00,,BKN,0.00,VWS V14.01,2013-04-17 01:22:00,
2013-04-16 20:27:00,83.1,60.8,29.26,North,0,0.0,0.0,47,0.00,,BKN,0.00,VWS V14.01,2013-04-17 01:27:00,
2013-04-16 20:32:00,82.9,60.7,29.26,North,0,0.0,0.0,47,0.00,,BKN,0.00,VWS V14.01,2013-04-17 01:32:00,
2013-04-16 20:37:00,82.6,60.9,29.26,North,0,0.0,0.0,48,0.00,,BKN,0.00,VWS V14.01,2013-04-17 01:37:00,
2013-04-16 20:42:00,82.4,60.8,29.26,North,0,0.0,0.0,48,0.00,,BKN,0.00,VWS V14.01,2013-04-17 01:42:00,
2013-04-16 20:47:00,82.4,61.3,29.26,North,0,0.0,0.0,49,0.00,,BKN,0.00,VWS V14.01,2013-04-17 01:47:00,
2013-04-16 20:52:00,82.2,61.8,29.26,North,0,0.0,0.0,50,0.00,,BKN,0.00,VWS V14.01,2013-04-17 01:52:00,
2013-04-16 20:57:00,82.0,62.1,29.26,North,0,0.0,0.0,51,0.00,,BKN,0.00,VWS V14.01,2013-04-17 01:57:00,
2013-04-16 21:03:00,81.9,62.5,29.26,North,0,0.0,0.0,52,0.00,,BKN,0.00,VWS V14.01,2013-04-17 02:03:00,
2013-04-16 21:08:00,81.7,62.9,29.26,North,0,0.0,0.0,53,0.00,,BKN,0.00,VWS V14.01,2013-04-17 02:08:00,
2013-04-16 21:13:00,81.5,64.3,29.26,North,0,0.0,0.0,56,0.00,,BKN,0.00,VWS V14.01,2013-04-17 02:13:00,
2013-04-16 21:18:00,81.1,65.0,29.26,North,0,0.0,0.0,58,0.00,,BKN,0.00,VWS V14.01,2013-04-17 02:18:00,
2013-04-16 21:23:00,81.0,65.3,29.26,North,0,0.0,0.0,59,0.00,,BKN,0.00,VWS V14.01,2013-04-17 02:23:00,
2013-04-16 21:28:00,80.8,65.6,29.26,North,0,0.0,0.0,60,0.00,,BKN,0.00,VWS V14.01,2013-04-17 02:28:00,
2013-04-16 21:33:00,80.6,65.9,29.26,North,0,0.0,0.0,61,0.00,,BKN,0.00,VWS V14.01,2013-04-17 02:33:00,
2013-04-16 21:38:00,80.4,65.8,29.26,North,0,0.0,0.0,61,0.00,,BKN,0.00,VWS V14.01,2013-04-17 02:38:00,
2013-04-16 21:43:00,80.1,65.9,29.26,North,0,0.0,0.0,62,0.00,,BKN,0.00,VWS V14.01,2013-04-17 02:43:00,
2013-04-16 21:48:00,79.9,65.7,29.29,North,0,0.0,0.0,62,0.00,,BKN,0.00,VWS V14.01,2013-04-17 02:48:00,
2013-04-16 21:54:00,79.7,66.0,29.29,North,0,0.0,0.0,63,0.00,,BKN,0.00,VWS V14.01,2013-04-17 02:54:00,
2013-04-16 21:59:00,79.7,66.5,29.29,North,0,0.0,0.0,64,0.00,,BKN,0.00,VWS V14.01,2013-04-17 02:59:00,
2013-04-16 22:04:00,79.5,66.3,29.29,North,0,0.0,0.0,64,0.00,,BKN,0.00,VWS V14.01,2013-04-17 03:04:00,
2013-04-16 22:09:00,79.3,66.1,29.29,North,0,0.0,0.0,64,0.00,,BKN,0.00,VWS V14.01,2013-04-17 03:09:00,
2013-04-16 22:14:00,79.2,65.9,29.29,North,0,0.0,0.0,64,0.00,,BKN,0.00,VWS V14.01,2013-04-17 03:14:00,
2013-04-16 22:19:00,79.0,65.8,29.29,North,0,0.0,0.0,64,0.00,,BKN,0.00,VWS V14.01,2013-04-17 03:19:00,
2013-04-16 22:24:00,78.8,66.1,29.29,North,0,0.0,0.0,65,0.00,,BKN,0.00,VWS V14.01,2013-04-17 03:24:00,
2013-04-16 22:29:00,78.4,65.7,29.29,North,0,0.0,0.0,65,0.00,,BKN,0.00,VWS V14.01,2013-04-17 03:29:00,
2013-04-16 22:34:00,78.4,65.7,29.29,North,0,0.0,0.0,65,0.00,,BKN,0.00,VWS V14.01,2013-04-17 03:34:00,
2013-04-16 22:39:00,78.3,65.5,29.29,North,0,0.0,0.0,65,0.00,,BKN,0.00,VWS V14.01,2013-04-17 03:39:00,
2013-04-16 22:44:00,78.1,65.4,29.29,North,0,0.0,0.0,65,0.00,,BKN,0.00,VWS V14.01,2013-04-17 03:44:00,
2013-04-16 22:49:00,77.7,65.0,29.29,North,0,0.0,0.0,65,0.00,,BKN,0.00,VWS V14.01,2013-04-17 03:49:00,
2013-04-16 22:55:00,77.5,64.9,29.29,North,0,0.0,0.0,65,0.00,,BKN,0.00,VWS V14.01,2013-04-17 03:55:00,
2013-04-16 23:00:00,77.4,64.7,29.29,North,0,0.0,0.0,65,0.00,,BKN,0.00,VWS V14.01,2013-04-17 04:00:00,
2013-04-16 23:01:00,77.4,64.7,29.32,North,0,0.0,0.0,65,0.00,,BKN,0.00,VWS V14.01,2013-04-17 04:01:00,
2013-04-16 23:03:00,77.4,64.7,29.32,North,0,0.0,0.0,65,0.00,,BKN,0.00,VWS V14.01,2013-04-17 04:03:00,
2013-04-16 23:08:00,77.2,64.5,29.32,North,0,0.0,0.0,65,0.00,,BKN,0.00,VWS V14.01,2013-04-17 04:08:00,
2013-04-16 23:13:00,77.0,64.8,29.32,North,0,0.0,0.0,66,0.00,,BKN,0.00,VWS V14.01,2013-04-17 04:13:00,
2013-04-16 23:18:00,76.8,64.6,29.32,North,0,0.0,0.0,66,0.00,,BKN,0.00,VWS V14.01,2013-04-17 04:18:00,
2013-04-16 23:23:00,76.8,65.0,29.32,North,0,0.0,0.0,67,0.00,,BKN,0.00,VWS V14.01,2013-04-17 04:23:00,
2013-04-16 23:29:00,76.5,65.1,29.32,North,0,0.0,0.0,68,0.00,,BKN,0.00,VWS V14.01,2013-04-17 04:29:00,
2013-04-16 23:34:00,76.3,65.4,29.32,North,0,0.0,0.0,69,0.00,,BKN,0.00,VWS V14.01,2013-04-17 04:34:00,
2013-04-16 23:39:00,76.1,65.6,29.32,North,0,0.0,0.0,70,0.00,,BKN,0.00,VWS V14.01,2013-04-17 04:39:00,
2013-04-16 23:44:00,75.9,65.4,29.32,North,0,0.0,0.0,70,0.00,,BKN,0.00,VWS V14.01,2013-04-17 04:44:00,
2013-04-16 23:49:00,75.7,65.7,29.32,North,0,0.0,0.0,71,0.00,,BKN,0.00,VWS V14.01,2013-04-17 04:49:00,
2013-04-16 23:54:00,75.6,65.5,29.32,North,0,0.0,0.0,71,0.00,,BKN,0.00,VWS V14.01,2013-04-17 04:54:00,
2013-04-16 23:59:00,75.6,65.5,29.32,North,0,0.0,0.0,71,0.00,,BKN,0.00,VWS V14.01,2013-04-17 04:59:00,